Home   Weather   Feldbach   Past weeks

Flag for Austria Past Weather in Feldbach, Styria, Austria — Yesterday and Last 2 Weeks

Now
18 °F

Low clouds.


Feels Like: N/A
Forecast: 12 / 27 °F
Wind: N/A

Location: Graz-Thalerhof-Flughafen

Current Time: Jan 24, 2017 at 10:53:36 pm

Latest Report: Jan 24, 2017 at 10:00 pm


Visibility: 2 mi

Pressure: 30.44 "Hg

Humidity: 91%

Dew Point: 16 °F

Location of FeldbachLocation

Past Weather in Feldbach — Graph

°F

Feldbach Temperature Yesterday

Maximum temperature yesterday: 22 °F (at 2:00 pm)
Minimum temperature yesterday: 12 °F (at 3:00 am)
Average temperature yesterday: 15 °F

High & Low Weather Summary for the Past Weeks

 TemperatureHumidityPressure
High36 °F (Jan 15, 2:00 pm)98% (Jan 14, 4:00 am)30.72 "Hg (Jan 14, 4:00 am)
Low1 °F (Jan 11, 7:00 am)50% (Jan 19, 2:00 pm)29.50 "Hg (Jan 13, 7:00 am)
Average21 °F84%30.28 "Hg
* Reported Jan 9 9:00 pm — Jan 24 9:00 pm, Feldbach, Weather by CustomWeather, © 2017

Note: Actual official high and low records may vary slightly from our data, if they occured in-between our weather recording intervals... More about our weather records

Advertising

Feldbach Weather History for the Previous 24 Hours

Scroll right to see more
 ConditionsComfort  
Time TempWeatherWind HumidityBarometerVisibility
9:00 pm
Tue, Jan 24
18 °FLow clouds.N/A92%30.43 "Hg2 mi
8:00 pm18 °FLow clouds.N/A91%30.42 "Hg2 mi
7:00 pm18 °FLight snow. Low clouds.N/A91%30.41 "Hg2 mi
6:00 pm18 °FLow clouds.N/A91%30.40 "Hg2 mi
5:00 pm18 °FLow clouds.N/A91%30.39 "Hg2 mi
4:00 pm18 °FLow clouds.N/A91%30.37 "Hg1 mi
3:00 pm18 °FLow clouds.N/A91%30.35 "Hg1 mi
2:00 pm18 °FLow clouds.N/A91%30.35 "Hg1 mi
1:00 pm18 °FLow clouds.N/A92%30.36 "Hg1 mi
12:00 pm17 °FLow clouds.N/A91%30.37 "Hg1 mi
11:00 am17 °FLow clouds.N/A92%30.38 "Hg1 mi
10:00 am16 °FLow clouds.N/A92%30.37 "Hg1 mi
9:00 am16 °FLow clouds.N/A93%30.34 "Hg1 mi
8:00 am16 °FLow clouds.N/A93%30.34 "Hg1 mi
7:00 am16 °FLow clouds.N/A93%30.32 "Hg1 mi
6:00 am16 °FLow clouds.N/A93%30.31 "Hg1 mi
5:00 am15 °FLow clouds.N/A93%30.32 "Hg2 mi
4:00 am15 °FLow clouds.N/A93%30.32 "Hg1 mi
3:00 am15 °FLow clouds.N/A94%30.32 "Hg1 mi
2:00 am15 °FIcy mix. Low clouds.N/A94%30.32 "Hg1 mi
1:00 am15 °FIcy mix. Low clouds.N/A93%30.32 "Hg1 mi
12:00 am15 °FLow clouds.N/A93%30.33 "Hg1 mi
11:00 pm
Mon, Jan 23
15 °FLow clouds.N/A93%30.35 "Hg1 mi
10:00 pm14 °FIcy mix. Low clouds.N/A94%30.36 "Hg0 mi
Weather by CustomWeather, © 2017

See weather overviewHow to use our weather pages